Whidbey Island, WA

11:27 PM PDT on September 23, 2017 (GMT -0700)
Whidbey Island Naval Air Station

Weather History for KNUW - May, 2013

Change the Weather History Date:

Friday, May 24, 2013

  Actual Average Record
Temperature  
Mean Temperature 51 °F -  
Max Temperature 57 °F 58 °F 66 °F (1999)
Min Temperature 45 °F 44 °F 37 °F (2002)
Degree Days  
Heating Degree Days 14    
Growing Degree Days 1 (Base 50)    
Moisture  
Dew Point 45 °F    
Average Humidity 78    
Maximum Humidity 90    
Minimum Humidity 64    
Precipitation  
Precipitation 0.00 in - - ()
Sea Level Pressure  
Sea Level Pressure 30.03 in    
Wind  
Wind Speed 6 mph (SW)    
Max Wind Speed 9 mph    
Max Gust Speed -    
Visibility 10 miles    
Events Rain    
Averages and records for this station are not official NWS values.
T = Trace of Precipitation, MM = Missing Value Source: NWS Daily Summary

Daily Weather History Graph

Daily Weather History Graph

Search for Another Location

Airport or City:

Trip Planner

Search our weather history database for the weather conditions in past years. The results will help you decide how hot, cold, wet, or windy it might be!

Date:

Astronomy

May. 24, 2013 Rise Set
Actual Time 5:20 AM PDT 8:55 PM PDT
Civil Twilight 4:41 AM PDT 9:34 PM PDT
Nautical Twilight 3:48 AM PDT 10:27 PM PDT
Astronomical Twilight 2:36 AM PDT 11:40 PM PDT
Moon 8:41 PM PDT 5:01 AM PDT
Length of Visible Light 16h 53m
Length of Day
15h 35m
Full, 100% of the Moon is Illuminated
May 24
Full
May 24
Full
May 31
Last Quarter
Jun 8
New
Jun 16
First Quarter

Hourly Weather History & Observations

Time (PDT) Temp. Windchill Dew Point Humidity Pressure Visibility Wind Dir Wind Speed Gust Speed Precip Events Conditions
12:56 AM 46.9 °F - 41.0 °F 80% 30.00 in 10.0 mi ESE 5.8 mph - N/A   Mostly Cloudy
1:56 AM 45.0 °F 41.2 °F 41.0 °F 86% 30.00 in 10.0 mi East 6.9 mph - N/A   Mostly Cloudy
2:56 AM 46.0 °F 43.1 °F 43.0 °F 89% 30.00 in 10.0 mi East 5.8 mph - N/A   Mostly Cloudy
3:56 AM 46.9 °F - 44.1 °F 90% 30.00 in 10.0 mi East 8.1 mph - N/A   Mostly Cloudy
4:56 AM 46.0 °F 43.1 °F 43.0 °F 89% 30.01 in 10.0 mi ESE 5.8 mph - N/A   Mostly Cloudy
5:56 AM 46.9 °F - 44.1 °F 90% 30.01 in 10.0 mi SE 3.5 mph - N/A   Mostly Cloudy
6:56 AM 48.9 °F - 45.0 °F 86% 30.01 in 10.0 mi SSE 3.5 mph - N/A   Mostly Cloudy
7:56 AM 51.1 °F - 46.0 °F 83% 30.01 in 10.0 mi WSW 6.9 mph - N/A   Scattered Clouds
8:56 AM 51.1 °F - 45.0 °F 80% 30.02 in 10.0 mi West 5.8 mph - N/A   Mostly Cloudy
9:56 AM 52.0 °F - 45.0 °F 77% 30.03 in 10.0 mi WNW 4.6 mph - N/A   Mostly Cloudy
10:56 AM 53.1 °F - 45.0 °F 74% 30.03 in 10.0 mi WNW 3.5 mph - N/A   Mostly Cloudy
11:56 AM 53.1 °F - 46.0 °F 77% 30.04 in 10.0 mi NW 5.8 mph - N/A   Mostly Cloudy
12:56 PM 55.0 °F - 45.0 °F 69% 30.05 in 10.0 mi WNW 5.8 mph - N/A   Mostly Cloudy
1:56 PM 55.9 °F - 45.0 °F 67% 30.04 in 10.0 mi West 6.9 mph - N/A   Mostly Cloudy
2:56 PM 57.0 °F - 45.0 °F 64% 30.04 in 10.0 mi Variable 5.8 mph - N/A   Mostly Cloudy
3:56 PM 57.9 °F - 46.0 °F 65% 30.04 in 10.0 mi Variable 5.8 mph - N/A   Mostly Cloudy
4:56 PM 57.0 °F - 46.0 °F 67% 30.04 in 10.0 mi WNW 6.9 mph - N/A   Mostly Cloudy
5:56 PM 55.0 °F - 44.1 °F 67% 30.05 in 10.0 mi WNW 4.6 mph - N/A   Mostly Cloudy
6:56 PM 53.1 °F - 46.0 °F 77% 30.05 in 10.0 mi WSW 8.1 mph - N/A   Mostly Cloudy
7:56 PM 52.0 °F - 46.9 °F 83% 30.05 in 10.0 mi SW 5.8 mph - N/A   Mostly Cloudy
8:56 PM 52.0 °F - 45.0 °F 77% 30.05 in 10.0 mi SW 8.1 mph - N/A   Mostly Cloudy
9:56 PM 52.0 °F - 46.0 °F 80% 30.06 in 10.0 mi SW 8.1 mph - 0.00 in Rain Light Rain
10:32 PM 51.8 °F - 46.4 °F 82% 30.05 in 10.0 mi SW 9.2 mph - 0.00 in   Mostly Cloudy
10:56 PM 52.0 °F - 46.0 °F 80% 30.06 in 10.0 mi SW 6.9 mph - 0.00 in   Mostly Cloudy
11:56 PM 52.0 °F - 46.0 °F 80% 30.06 in 10.0 mi Calm Calm - N/A   Overcast